User: anonymous   Login
Location: Zagreb
(45.8000°N, 16.0000°E)
Time: 12:44:21
(UTC+01:00)
Language:

Transit 2A - Orbit

View from above orbital plane
View from above orbital plane
View from above satellite
View from above satellite

Ground track
Ground track

The orbit data is extracted from the following two-line orbital elements,

1 00045U 60007A   22018.90787832  .00000060  00000-0  41455-4 0  9998
2 00045  66.6950 291.1585 0262227 253.5820 103.6312 14.33769150149043
Epoch (UTC): 18 January 2022 21:47:20
Eccentricity: 0.0262227
inclination: 66.6950°
perigee height: 591 km
apogee height: 967 km
right ascension of ascending node: 291.1585°
argument of perigee: 253.5820°
revolutions per day: 14.33769150
mean anomaly at epoch: 103.6312°
orbit number at epoch: 14904

The dashed part of the orbit path shows where the satellite is in the earth's shadow,  

DLR